Home   Weather   Steinbach   Past weeks

Flag for Canada Past Weather in Steinbach, Manitoba, Canada — Yesterday and Last 2 Weeks

Now
74 °F

Mild.


Feels Like: 77 °F
Forecast: 58 / 78 °F
Wind: 5 mph from West

Location: Winnipeg The Forks Man

Current Time: Jul 25, 2017 at 9:54:11 pm

Latest Report: Jul 25, 2017 at 9:00 pm


Visibility: N/A

Pressure: 29.85 "Hg

Humidity: 56%

Dew Point: 57 °F

Location of SteinbachLocation

Past Weather in Steinbach — Graph

°F

Steinbach Temperature Yesterday

Maximum temperature yesterday: 80 °F (at 5:00 pm)
Minimum temperature yesterday: 63 °F (at 5:00 am)
Average temperature yesterday: 72 °F

High & Low Weather Summary for the Past Weeks

 TemperatureHumidityPressure
High81 °F (Jul 16, 4:00 pm)94% (Jul 12, 12:00 am)30.23 "Hg (Jul 12, 12:00 am)
Low54 °F (Jul 13, 6:00 am)29% (Jul 17, 5:00 pm)29.61 "Hg (Jul 17, 5:00 am)
Average69 °F67%29.92 "Hg
* Reported Jul 10 8:00 pm — Jul 25 8:00 pm, Steinbach. Weather by CustomWeather, © 2017

Note: Actual official high and low records may vary slightly from our data, if they occured in-between our weather recording intervals... More about our weather records

Advertising

Steinbach Weather History for the Previous 24 Hours

Scroll right to see more
 ConditionsComfort  
Time TempWeatherWind HumidityBarometerVisibility
8:00 pm
Tue, Jul 25
75 °FMild.5 mph51%29.84 "HgN/A
7:00 pm74 °FMild.7 mph50%29.84 "HgN/A
6:00 pm76 °FMild.6 mph46%29.83 "HgN/A
5:00 pm76 °FMild.6 mph49%29.83 "HgN/A
4:00 pm75 °FMild.6 mph51%29.82 "HgN/A
3:00 pm74 °FMild.7 mph52%29.81 "HgN/A
2:00 pm73 °FMild.7 mph55%29.81 "HgN/A
1:00 pm71 °FMild.9 mph58%29.80 "HgN/A
12:00 pm72 °FMild.6 mph53%29.80 "HgN/A
11:00 am70 °FMild.5 mph59%29.80 "HgN/A
10:00 am69 °FMild.5 mph68%29.80 "HgN/A
9:00 am69 °FMild.3 mph89%29.78 "HgN/A
8:00 am67 °FMild.6 mph90%29.79 "HgN/A
7:00 am67 °FMild.5 mph92%29.78 "HgN/A
6:00 am66 °FMild.3 mph92%29.78 "HgN/A
5:00 am67 °FMild.5 mph90%29.78 "HgN/A
4:00 am68 °FMild.8 mph88%29.77 "HgN/A
3:00 am68 °FMild.6 mph88%29.80 "HgN/A
2:00 am69 °FMild.6 mph80%29.80 "HgN/A
1:00 am72 °FMild.7 mph72%29.79 "HgN/A
12:00 am73 °FMild.8 mph67%29.78 "HgN/A
11:00 pm
Mon, Jul 24
73 °FMild.6 mph63%29.78 "HgN/A
10:00 pm74 °FMild.6 mph67%29.79 "HgN/A
9:00 pm76 °FMild.5 mph64%29.79 "HgN/A
Weather by CustomWeather, © 2017

See weather overviewHow to use our weather pages